Location: Amsterdam
(30.7274°N, 84.4357°W)
Time: 15:34:48
(UTC+00:00)

Vanguard 1 Rocket - Pass Details

Date: 18 February 2026
Orbit: 653 x 4214 km, 34.3° (Epoch: 6 March)

Event Time Altitude Azimuth Distance (km) Brightness Sun altitude
Rises 23:36:29 0° 288° (WNW) 6,026 12.8 -2.6°
Reaches altitude 10° 23:39:44 10° 287° (WNW) 5,382 12.5 -3.3°
Maximum altitude 23:58:01 76° 206° (SSW) 3,887 10.7 -7.1°
Drops below altitude 10° 00:24:25 10° 126° (SE) 7,289 11.5 -12.8°
Sets 00:29:47 0° 124° (SE) 8,130 11.8 -13.9°
